Location: Newark
(27.5900°N, 83.4900°E)
Time: 20:05:49
(UTC+00:00)

N. Korean satellite - Visible Passes

Search period start: 05 December 2019 00:00
Search period end: 15 December 2019 00:00
Orbit: 456 x 506 km, 97.2° (Epoch: 05 December)

Date Brightness Start Highest point End Pass type
(mag) Time Alt. Az. Time Alt. Az. Time Alt. Az.
06 Dec 7.0 00:32:12 10° N 00:35:31 39° WNW 00:38:46 10° SW visible
06 Dec 9.9 12:34:51 10° SW 12:36:57 15° W 12:39:05 10° WNW visible
07 Dec 6.6 00:06:38 10° NNE 00:10:10 78° ESE 00:13:36 10° S visible
07 Dec 8.7 12:08:06 10° SSW 12:11:27 33° W 12:14:50 10° NNW visible
07 Dec 8.6 23:41:37 10° NE 23:44:43 29° E 23:47:45 10° SSE visible
08 Dec 9.9 23:17:38 10° ENE 23:19:11 12° E 23:20:43 10° ESE visible
10 Dec 6.6 00:23:46 10° N 00:27:10 53° WNW 00:30:31 10° SSW visible
10 Dec 9.8 12:25:55 10° SW 12:28:35 19° W 12:31:16 10° NW visible
10 Dec 7.2 23:58:21 10° NNE 00:01:47 56° E 00:05:08 10° S visible
11 Dec 8.1 11:59:34 10° S 12:03:06 43° W 12:06:39 10° NNW visible
11 Dec 9.1 23:33:32 10° NE 23:36:18 22° E 23:39:01 10° SSE visible
13 Dec 7.4 00:41:08 10° NNW 00:44:08 28° WNW 00:47:06 10° SW visible
13 Dec 10.3 12:44:50 10° WSW 12:45:43 11° W 12:46:36 10° W visible
14 Dec 6.3 00:15:20 10° N 00:18:47 73° WNW 00:22:11 10° SSW visible
14 Dec 9.3 12:17:08 10° SSW 12:20:11 24° W 12:23:14 10° NW visible
14 Dec 7.9 23:50:05 10° NNE 23:53:21 40° E 23:56:35 10° S visible
